This demonstration page uses our WeatherBlox Daily Observations layout. Learn more.

Left ArrowRight Arrow

Hourly Observations for August 24, 2016

Temp ( °F °C ) Dew Point ( °F °C ) Humidity (%) Winds ( mph kmh ) Pressure ( in mb ) Visibility ( mi km ) Precip ( " mm )
12:14 am 00:14 Clear 64 18 63 17 94 94 SE 5 7 30.18 1022 10 16.0934 N/A
12:34 am 00:34 Clear 64 18 63 17 94 94 SSE 3 6 30.18 1022 10 16.0934 N/A
12:54 am 00:54 Partly Cloudy 66 19 63 17 88 88 SE 6 9 30.18 1022 10 16.0934 N/A
1:14 am 01:14 Clear 66 19 63 17 88 88 SSE 5 7 30.18 1022 10 16.0934 N/A
1:34 am 01:34 Clear 66 19 63 17 88 88 SSE 5 7 30.18 1022 10 16.0934 N/A
1:54 am 01:54 Clear 66 19 63 17 88 88 SSE 7 11 30.18 1022 10 16.0934 N/A
2:14 am 02:14 Clear 66 19 63 17 88 88 S 6 9 30.18 1022 10 16.0934 N/A
2:34 am 02:34 Clear 66 19 63 17 88 88 S 5 7 30.18 1022 10 16.0934 N/A
2:54 am 02:54 Clear 66 19 63 17 88 88 S 3 6 30.18 1022 10 16.0934 N/A
3:14 am 03:14 Clear 66 19 63 17 88 88 Calm 30.18 1022 10 16.0934 N/A
3:34 am 03:34 Clear 66 19 63 17 88 88 SSE 3 6 30.18 1022 10 16.0934 N/A
3:54 am 03:54 Clear 66 19 63 17 88 88 SSE 5 7 30.18 1022 10 16.0934 N/A
4:14 am 04:14 Clear 66 19 63 17 88 88 S 5 7 30.18 1022 10 16.0934 N/A
4:34 am 04:34 Partly Cloudy 66 19 63 17 88 88 S 3 6 30.18 1022 10 16.0934 N/A
4:54 am 04:54 Partly Cloudy 66 19 63 17 88 88 SSE 3 6 30.18 1022 10 16.0934 N/A
5:15 am 05:15 Partly Cloudy 66 19 63 17 88 88 SSE 5 7 30.18 1022 10 16.0934 N/A
5:34 am 05:34 Partly Cloudy 66 19 63 17 88 88 SSE 5 7 30.15 1021 10 16.0934 N/A
5:54 am 05:54 Clear 66 19 63 17 88 88 S 3 6 30.15 1021 10 16.0934 N/A
6:15 am 06:15 Clear 66 19 63 17 88 88 S 5 7 30.15 1021 10 16.0934 N/A
6:34 am 06:34 Partly Cloudy 66 19 63 17 88 88 S 5 7 30.15 1021 10 16.0934 N/A
6:54 am 06:54 Mostly Cloudy 66 19 63 17 88 88 S 5 7 30.15 1021 10 16.0934 N/A
7:15 am 07:15 Partly Cloudy 66 19 63 17 88 88 S 6 9 30.15 1021 10 16.0934 N/A
7:34 am 07:34 Sunny 66 19 63 17 88 88 S 7 11 30.15 1021 10 16.0934 N/A
7:54 am 07:54 Sunny 68 20 64 18 88 88 S 7 11 30.15 1021 10 16.0934 N/A
8:14 am 08:14 Sunny 68 20 64 18 88 88 S 6 9 30.15 1021 10 16.0934 N/A
8:34 am 08:34 Partly Cloudy 68 20 64 18 88 88 S 8 13 30.15 1021 10 16.0934 N/A
8:54 am 08:54 Partly Cloudy 68 20 64 18 88 88 S 7 11 30.15 1021 10 16.0934 N/A
9:14 am 09:14 Partly Cloudy 70 21 66 19 88 88 S 7 11 30.15 1021 10 16.0934 N/A
9:34 am 09:34 Partly Cloudy 70 21 66 19 88 88 S 8 13 30.15 1021 10 16.0934 N/A
9:54 am 09:54 Partly Cloudy 72 22 66 19 83 83 S 9 15 30.15 1021 10 16.0934 N/A
10:14 am 10:14 Sunny 73 23 68 20 83 83 S 8 13 30.12 1020 10 16.0934 N/A
10:34 am 10:34 Sunny 75 24 68 20 78 78 S 9 15 30.12 1020 10 16.0934 N/A
10:54 am 10:54 Sunny 75 24 70 21 83 83 SSW 13 20 30.09 1019 10 16.0934 N/A
11:14 am 11:14 Sunny 75 24 70 21 83 83 SSW 10 17 30.12 1020 10 16.0934 N/A
11:34 am 11:34 Sunny 75 24 70 21 83 83 SSW 9 15 30.12 1020 10 16.0934 N/A
11:54 am 11:54 Sunny 73 23 70 21 89 89 SSW 8 13 30.12 1020 10 16.0934 N/A
12:14 pm 12:14 Partly Cloudy 73 23 70 21 89 89 S 6 9 30.09 1019 10 16.0934 N/A
12:34 pm 12:34 Partly Cloudy 73 23 70 21 89 89 S 6 9 30.09 1019 10 16.0934 N/A
12:54 pm 12:54 Partly Cloudy 73 23 70 21 89 89 S 6 9 30.06 1018 10 16.0934 N/A
1:14 pm 13:14 Partly Cloudy 75 24 72 22 89 89 S 6 9 30.06 1018 10 16.0934 N/A
1:54 pm 13:54 Sunny 79 26 73 23 84 84 S 12 19 30.06 1018 10 16.0934 N/A
2:14 pm 14:14 Sunny 81 27 75 24 84 84 S 13 20 30.03 1017 10 16.0934 N/A
2:34 pm 14:34 Sunny 82 28 75 24 79 79 S 10 17 30.03 1017 10 16.0934 N/A
2:54 pm 14:54 Mostly Cloudy 82 28 75 24 79 79 S 13 20 30.03 1017 10 16.0934 N/A
3:14 pm 15:14 Mostly Cloudy 81 27 73 23 79 79 S 10 17 30 1016 10 16.0934 N/A
3:34 pm 15:34 Partly Cloudy 81 27 73 23 79 79 SSW 8 13 30.03 1017 10 16.0934 N/A
3:54 pm 15:54 Mostly Cloudy 81 27 73 23 79 79 S 6 9 30.03 1017 10 16.0934 N/A
4:14 pm 16:14 Cloudy 79 26 73 23 84 84 Calm 30.03 1017 3 4.82802 N/A
4:34 pm 16:34 Cloudy 75 24 73 23 94 94 N 6 9 30.03 1017 5 8.0467 N/A
4:54 pm 16:54 Cloudy 72 22 68 20 88 88 SE 14 22 30.03 1017 5 8.0467 N/A
5:14 pm 17:14 Mostly Cloudy 73 23 72 22 94 94 S 3 6 30.03 1017 10 16.0934 N/A
5:34 pm 17:34 Mostly Cloudy 72 22 70 21 94 94 S 9 15 30.03 1017 4 6.43736 N/A
5:54 pm 17:54 Cloudy 72 22 70 21 94 94 SSE 10 17 30.03 1017 0.5 0.80467 N/A
6:14 pm 18:14 Mostly Cloudy 73 23 72 22 94 94 S 7 11 30 1016 10 16.0934 N/A
6:34 pm 18:34 Mostly Cloudy 73 23 72 22 94 94 S 8 13 30 1016 10 16.0934 N/A
6:54 pm 18:54 Partly Cloudy 75 24 72 22 89 89 S 8 13 30 1016 10 16.0934 N/A
7:14 pm 19:14 Mostly Cloudy 73 23 72 22 94 94 S 6 9 30 1016 10 16.0934 N/A
7:34 pm 19:34 Partly Cloudy 73 23 72 22 94 94 S 5 7 30 1016 7 11.26538 N/A
7:54 pm 19:54 Mostly Cloudy 75 24 72 22 89 89 SSW 5 7 30 1016 10 16.0934 N/A
8:14 pm 20:14 Partly Cloudy 75 24 73 23 94 94 SSW 6 9 30 1016 10 16.0934 N/A
8:34 pm 20:34 Partly Cloudy 77 25 73 23 89 89 SSW 8 13 30 1016 10 16.0934 N/A
8:54 pm 20:54 Partly Cloudy 77 25 73 23 89 89 SSW 7 11 30 1016 10 16.0934 N/A
9:14 pm 21:14 Mostly Cloudy 75 24 73 23 94 94 SSW 8 13 30 1016 10 16.0934 N/A
9:34 pm 21:34 Mostly Cloudy 75 24 73 23 94 94 SSW 8 13 30 1016 10 16.0934 N/A
9:54 pm 21:54 Partly Cloudy 75 24 73 23 94 94 SSW 8 13 30 1016 10 16.0934 N/A
10:14 pm 22:14 Clear 75 24 73 23 94 94 SSW 8 13 30 1016 10 16.0934 N/A
10:34 pm 22:34 Clear 75 24 73 23 94 94 SW 8 13 30 1016 10 16.0934 N/A
10:54 pm 22:54 Partly Cloudy 75 24 73 23 94 94 SW 8 13 30 1016 10 16.0934 N/A
11:14 pm 23:14 Mostly Cloudy 75 24 73 23 94 94 SW 7 11 30 1016 10 16.0934 N/A
11:34 pm 23:34 Partly Cloudy 75 24 73 23 94 94 SSW 5 7 30 1016 10 16.0934 N/A
11:54 pm 23:54 Partly Cloudy 75 24 73 23 94 94 SSW 3 6 30.03 1017 10 16.0934 N/A

Powered by AerisWeather